Time,TemperatureF,DewpointF,PressureIn,WindDirection,WindDirectionDegrees,WindSpeedMPH,WindSpeedGustMPH,Humidity,HourlyPrecipIn,Conditions,Clouds,dailyrainin,SoftwareType,DateUTC
2013-01-09 00:03:00,32.7,26.3,29.88,WSW,248,2.9,2.9,77,0.00,,---,0.00,VWS V14.01,2013-01-09 06:03:00,
2013-01-09 00:08:00,32.5,26.1,29.88,WSW,248,2.2,2.2,77,0.00,,---,0.00,VWS V14.01,2013-01-09 06:08:00,
2013-01-09 00:13:00,32.5,26.1,29.88,WSW,248,2.5,2.5,77,0.00,,---,0.00,VWS V14.01,2013-01-09 06:13:00,
2013-01-09 00:18:00,32.2,25.8,29.88,West,270,1.6,2.7,77,0.00,,---,0.00,VWS V14.01,2013-01-09 06:18:00,
2013-01-09 00:23:00,32.0,25.9,29.88,WSW,248,2.0,2.0,78,0.00,,---,0.00,VWS V14.01,2013-01-09 06:23:00,
2013-01-09 00:28:00,32.0,25.9,29.88,WSW,248,2.7,2.7,78,0.00,,---,0.00,VWS V14.01,2013-01-09 06:28:00,
2013-01-09 00:33:00,32.0,25.9,29.88,WSW,248,2.2,2.2,78,0.00,,---,0.00,VWS V14.01,2013-01-09 06:33:00,
2013-01-09 00:38:00,31.8,25.8,29.88,WSW,248,2.0,2.5,78,0.00,,---,0.00,VWS V14.01,2013-01-09 06:38:00,
2013-01-09 00:43:00,31.6,25.6,29.88,WSW,248,2.2,2.2,78,0.00,,---,0.00,VWS V14.01,2013-01-09 06:43:00,
2013-01-09 00:48:00,31.6,25.6,29.91,WSW,248,2.5,3.1,78,0.00,,---,0.00,VWS V14.01,2013-01-09 06:48:00,
2013-01-09 00:53:00,31.6,25.6,29.91,WSW,248,2.9,2.9,78,0.00,,---,0.00,VWS V14.01,2013-01-09 06:53:00,
2013-01-09 00:58:00,31.6,25.6,29.91,WSW,248,2.9,2.9,78,0.00,,---,0.00,VWS V14.01,2013-01-09 06:58:00,
2013-01-09 01:03:00,31.6,25.6,29.91,WSW,248,2.9,2.9,78,0.00,,---,0.00,VWS V14.01,2013-01-09 07:03:00,
2013-01-09 01:09:00,31.6,25.6,29.91,West,270,1.6,1.6,78,0.00,,---,0.00,VWS V14.01,2013-01-09 07:09:00,
2013-01-09 01:14:00,31.8,25.8,29.91,WSW,248,2.5,2.5,78,0.00,,---,0.00,VWS V14.01,2013-01-09 07:14:00,
2013-01-09 01:19:00,32.2,26.1,29.91,SSW,202,3.4,3.4,78,0.00,,---,0.00,VWS V14.01,2013-01-09 07:19:00,
2013-01-09 01:24:00,32.2,26.1,29.91,WSW,248,1.6,2.0,78,0.00,,---,0.00,VWS V14.01,2013-01-09 07:24:00,
2013-01-09 01:29:00,32.2,26.1,29.91,WSW,248,2.5,2.5,78,0.00,,---,0.00,VWS V14.01,2013-01-09 07:29:00,
2013-01-09 01:34:00,32.0,25.9,29.94,WSW,248,2.5,2.7,78,0.00,,---,0.00,VWS V14.01,2013-01-09 07:34:00,
2013-01-09 01:39:00,32.0,25.9,29.94,WSW,248,2.2,2.2,78,0.00,,---,0.00,VWS V14.01,2013-01-09 07:39:00,
2013-01-09 01:44:00,32.0,25.9,29.94,WSW,248,2.5,2.5,78,0.00,,---,0.00,VWS V14.01,2013-01-09 07:44:00,
2013-01-09 01:49:00,31.8,25.8,29.94,SSW,202,2.7,2.7,78,0.00,,---,0.00,VWS V14.01,2013-01-09 07:49:00,
2013-01-09 01:54:00,31.8,25.8,29.94,WSW,248,2.7,2.7,78,0.00,,---,0.00,VWS V14.01,2013-01-09 07:54:00,
2013-01-09 01:59:00,31.8,25.8,29.94,West,270,1.6,2.0,78,0.00,,---,0.00,VWS V14.01,2013-01-09 07:59:00,
2013-01-09 02:04:00,32.0,25.9,29.97,West,270,2.5,2.5,78,0.00,,---,0.00,VWS V14.01,2013-01-09 08:04:00,
2013-01-09 02:09:00,31.8,25.8,29.97,WSW,248,2.0,2.0,78,0.00,,---,0.00,VWS V14.01,2013-01-09 08:09:00,
2013-01-09 02:14:00,31.8,25.8,29.97,WSW,248,2.5,2.5,78,0.00,,---,0.00,VWS V14.01,2013-01-09 08:14:00,
2013-01-09 02:19:00,31.8,25.8,29.97,WSW,248,2.0,3.4,78,0.00,,---,0.00,VWS V14.01,2013-01-09 08:19:00,
2013-01-09 02:24:00,31.8,25.8,29.97,WSW,248,1.6,1.6,78,0.00,,---,0.00,VWS V14.01,2013-01-09 08:24:00,
2013-01-09 02:29:00,31.8,25.8,29.97,WSW,248,1.1,2.5,78,0.00,,---,0.00,VWS V14.01,2013-01-09 08:29:00,
2013-01-09 02:34:00,31.5,25.4,29.97,WNW,292,2.0,2.0,78,0.00,,---,0.00,VWS V14.01,2013-01-09 08:34:00,
2013-01-09 02:39:00,31.3,25.2,29.97,WSW,248,1.3,1.6,78,0.00,,---,0.00,VWS V14.01,2013-01-09 08:39:00,
2013-01-09 02:44:00,31.3,25.2,29.97,WSW,248,0.9,0.9,78,0.00,,---,0.00,VWS V14.01,2013-01-09 08:44:00,
2013-01-09 02:49:00,31.3,25.5,29.97,WSW,248,2.2,2.2,79,0.00,,---,0.00,VWS V14.01,2013-01-09 08:49:00,
2013-01-09 02:54:00,31.1,25.0,29.97,WSW,248,1.1,1.1,78,0.00,,---,0.00,VWS V14.01,2013-01-09 08:54:00,
2013-01-09 02:59:00,31.1,25.4,29.97,WSW,248,1.1,1.1,79,0.00,,---,0.00,VWS V14.01,2013-01-09 08:59:00,
2013-01-09 03:04:00,31.3,25.5,29.97,WNW,292,3.4,3.4,79,0.00,,---,0.00,VWS V14.01,2013-01-09 09:04:00,
2013-01-09 03:09:00,31.6,25.6,29.97,WNW,292,2.9,2.9,78,0.00,,---,0.00,VWS V14.01,2013-01-09 09:09:00,
2013-01-09 03:14:00,32.0,25.9,29.97,WNW,292,2.9,3.6,78,0.00,,---,0.00,VWS V14.01,2013-01-09 09:14:00,
2013-01-09 03:19:00,32.5,26.5,29.97,WNW,292,4.0,4.0,78,0.00,,---,0.00,VWS V14.01,2013-01-09 09:19:00,
2013-01-09 03:24:00,33.1,27.0,29.97,NW,315,4.0,4.7,78,0.00,,---,0.00,VWS V14.01,2013-01-09 09:24:00,
2013-01-09 03:29:00,33.3,27.1,29.97,WNW,292,3.8,4.0,78,0.00,,---,0.00,VWS V14.01,2013-01-09 09:29:00,
2013-01-09 03:34:00,33.4,27.0,29.97,WSW,248,2.5,4.0,77,0.00,,---,0.00,VWS V14.01,2013-01-09 09:34:00,
2013-01-09 03:39:00,33.6,27.2,29.97,West,270,3.1,4.3,77,0.00,,---,0.00,VWS V14.01,2013-01-09 09:39:00,
2013-01-09 03:45:00,33.4,26.7,29.97,WSW,248,2.5,2.5,76,0.00,,---,0.00,VWS V14.01,2013-01-09 09:45:00,
2013-01-09 03:50:00,33.1,26.4,30.00,West,270,2.7,2.7,76,0.00,,---,0.00,VWS V14.01,2013-01-09 09:50:00,
2013-01-09 03:55:00,32.5,25.8,30.00,West,270,1.3,1.3,76,0.00,,---,0.00,VWS V14.01,2013-01-09 09:55:00,
2013-01-09 04:00:00,32.4,25.6,30.00,WSW,248,2.0,2.5,76,0.00,,---,0.00,VWS V14.01,2013-01-09 10:00:00,
2013-01-09 04:05:00,32.0,25.3,30.00,WNW,292,2.0,2.0,76,0.00,,---,0.00,VWS V14.01,2013-01-09 10:05:00,
2013-01-09 04:10:00,31.6,25.3,30.00,West,270,2.7,2.7,77,0.00,,---,0.00,VWS V14.01,2013-01-09 10:10:00,
2013-01-09 04:15:00,32.0,25.6,30.00,WNW,292,2.7,2.7,77,0.00,,---,0.00,VWS V14.01,2013-01-09 10:15:00,
2013-01-09 04:20:00,32.5,26.1,30.00,West,270,3.1,3.1,77,0.00,,---,0.00,VWS V14.01,2013-01-09 10:20:00,
2013-01-09 04:25:00,32.5,26.1,30.00,WNW,292,2.5,2.5,77,0.00,,---,0.00,VWS V14.01,2013-01-09 10:25:00,
2013-01-09 04:30:00,32.7,26.3,30.00,WSW,248,2.9,2.9,77,0.00,,---,0.00,VWS V14.01,2013-01-09 10:30:00,
2013-01-09 04:35:00,32.7,26.3,30.00,West,270,3.6,3.6,77,0.00,,---,0.00,VWS V14.01,2013-01-09 10:35:00,
2013-01-09 04:40:00,33.1,26.4,30.00,West,270,4.0,4.0,76,0.00,,---,0.00,VWS V14.01,2013-01-09 10:40:00,
2013-01-09 04:45:00,33.3,26.5,30.00,WNW,292,2.7,3.4,76,0.00,,---,0.00,VWS V14.01,2013-01-09 10:45:00,
2013-01-09 04:50:00,33.4,26.7,30.00,WNW,292,5.8,5.8,76,0.00,,---,0.00,VWS V14.01,2013-01-09 10:50:00,
2013-01-09 04:55:00,33.6,26.9,30.00,WNW,292,3.4,3.4,76,0.00,,---,0.00,VWS V14.01,2013-01-09 10:55:00,
2013-01-09 05:00:00,33.8,26.7,30.00,West,270,2.5,3.8,75,0.00,,---,0.00,VWS V14.01,2013-01-09 11:00:00,
2013-01-09 05:05:00,33.6,26.6,30.00,WNW,292,2.2,2.2,75,0.00,,---,0.00,VWS V14.01,2013-01-09 11:05:00,
2013-01-09 05:10:00,33.6,26.6,30.00,WNW,292,2.5,2.9,75,0.00,,---,0.00,VWS V14.01,2013-01-09 11:10:00,
2013-01-09 05:15:00,33.4,26.4,30.00,NW,315,1.3,1.3,75,0.00,,---,0.00,VWS V14.01,2013-01-09 11:15:00,
2013-01-09 05:20:00,33.6,26.6,29.97,WNW,292,1.6,1.6,75,0.00,,---,0.00,VWS V14.01,2013-01-09 11:20:00,
2013-01-09 05:25:00,33.4,26.4,29.97,WSW,248,2.7,2.7,75,0.00,,---,0.00,VWS V14.01,2013-01-09 11:25:00,
2013-01-09 05:30:00,32.7,25.7,29.97,West,270,0.0,0.0,75,0.00,,---,0.00,VWS V14.01,2013-01-09 11:30:00,
2013-01-09 05:35:00,32.4,25.0,29.97,SSW,202,0.0,0.0,74,0.00,,---,0.00,VWS V14.01,2013-01-09 11:35:00,
2013-01-09 05:40:00,31.3,24.3,29.97,South,180,1.3,1.3,75,0.00,,---,0.00,VWS V14.01,2013-01-09 11:40:00,
2013-01-09 05:45:00,30.9,23.9,29.97,South,180,4.3,4.3,75,0.00,,---,0.00,VWS V14.01,2013-01-09 11:45:00,
2013-01-09 05:50:00,30.7,24.1,30.00,SW,225,1.6,1.6,76,0.00,,---,0.00,VWS V14.01,2013-01-09 11:50:00,
2013-01-09 05:55:00,30.6,23.9,30.00,SW,225,1.1,1.6,76,0.00,,---,0.00,VWS V14.01,2013-01-09 11:55:00,
2013-01-09 06:00:00,30.2,23.9,30.00,SW,225,1.1,2.0,77,0.00,,---,0.00,VWS V14.01,2013-01-09 12:00:00,
2013-01-09 06:05:00,30.2,23.9,30.00,SSW,202,0.0,0.0,77,0.00,,---,0.00,VWS V14.01,2013-01-09 12:05:00,
2013-01-09 06:10:00,30.0,23.7,30.00,SSE,158,2.0,2.0,77,0.00,,---,0.00,VWS V14.01,2013-01-09 12:10:00,
2013-01-09 06:16:00,29.8,23.5,30.00,WSW,248,2.0,2.0,77,0.00,,---,0.00,VWS V14.01,2013-01-09 12:16:00,
2013-01-09 06:21:00,29.8,23.8,30.00,South,180,0.9,0.9,78,0.00,,---,0.00,VWS V14.01,2013-01-09 12:21:00,
2013-01-09 06:26:00,29.7,23.6,30.00,SSW,202,0.9,0.9,78,0.00,,---,0.00,VWS V14.01,2013-01-09 12:26:00,
2013-01-09 06:31:00,29.7,23.6,30.00,South,180,0.0,0.0,78,0.00,,---,0.00,VWS V14.01,2013-01-09 12:31:00,
2013-01-09 06:36:00,29.3,23.3,30.00,SW,225,1.3,1.3,78,0.00,,---,0.00,VWS V14.01,2013-01-09 12:36:00,
2013-01-09 06:41:00,28.9,23.0,30.00,South,180,1.1,1.1,78,0.00,,---,0.00,VWS V14.01,2013-01-09 12:41:00,
2013-01-09 06:46:00,28.9,23.3,30.00,South,180,0.0,0.0,79,0.00,,---,0.00,VWS V14.01,2013-01-09 12:46:00,
2013-01-09 06:51:00,28.8,23.1,30.03,WNW,292,2.7,2.7,79,0.00,,---,0.00,VWS V14.01,2013-01-09 12:51:00,
2013-01-09 06:56:00,29.1,23.4,30.03,SW,225,2.2,2.2,79,0.00,,---,0.00,VWS V14.01,2013-01-09 12:56:00,
2013-01-09 07:01:00,29.1,23.4,30.03,SSW,202,2.7,2.7,79,0.00,,---,0.00,VWS V14.01,2013-01-09 13:01:00,
2013-01-09 07:06:00,28.6,22.6,30.03,WSW,248,1.6,1.6,78,0.00,,---,0.00,VWS V14.01,2013-01-09 13:06:00,
2013-01-09 07:11:00,28.6,22.9,30.03,WNW,292,1.1,1.1,79,0.00,,---,0.00,VWS V14.01,2013-01-09 13:11:00,
2013-01-09 07:16:00,28.4,22.7,30.03,WSW,248,1.3,1.3,79,0.00,,---,0.00,VWS V14.01,2013-01-09 13:16:00,
2013-01-09 07:21:00,28.4,22.7,30.03,West,270,2.9,2.9,79,0.00,,---,0.00,VWS V14.01,2013-01-09 13:21:00,
2013-01-09 07:26:00,28.4,22.7,30.03,West,270,2.5,2.5,79,0.00,,---,0.00,VWS V14.01,2013-01-09 13:26:00,
2013-01-09 07:31:00,28.6,22.9,30.03,West,270,2.9,2.9,79,0.00,,---,0.00,VWS V14.01,2013-01-09 13:31:00,
2013-01-09 07:36:00,28.6,22.9,30.03,WSW,248,2.5,2.5,79,0.00,,---,0.00,VWS V14.01,2013-01-09 13:36:00,
2013-01-09 07:41:00,28.6,22.9,30.03,WSW,248,3.4,3.4,79,0.00,,---,0.00,VWS V14.01,2013-01-09 13:41:00,
2013-01-09 07:46:00,28.6,22.9,30.03,WSW,248,2.5,3.1,79,0.00,,---,0.00,VWS V14.01,2013-01-09 13:46:00,
2013-01-09 07:51:00,28.6,22.9,30.06,SSW,202,3.6,3.6,79,0.00,,---,0.00,VWS V14.01,2013-01-09 13:51:00,
2013-01-09 07:56:00,28.4,22.7,30.06,WSW,248,2.0,2.2,79,0.00,,---,0.00,VWS V14.01,2013-01-09 13:56:00,
2013-01-09 08:01:00,28.2,22.6,30.09,SW,225,2.7,2.7,79,0.00,,---,0.00,VWS V14.01,2013-01-09 14:01:00,
2013-01-09 08:06:00,27.9,22.2,30.09,SSW,202,2.7,3.4,79,0.00,,---,0.00,VWS V14.01,2013-01-09 14:06:00,
2013-01-09 08:11:00,27.9,22.2,30.09,SW,225,3.8,3.8,79,0.00,,---,0.00,VWS V14.01,2013-01-09 14:11:00,
2013-01-09 08:16:00,28.0,22.4,30.09,SW,225,4.0,4.0,79,0.00,,---,0.00,VWS V14.01,2013-01-09 14:16:00,
2013-01-09 08:21:00,28.2,22.6,30.09,SSW,202,2.9,2.9,79,0.00,,---,0.00,VWS V14.01,2013-01-09 14:21:00,
2013-01-09 08:26:00,28.8,23.1,30.09,WSW,248,3.4,3.8,79,0.00,,---,0.00,VWS V14.01,2013-01-09 14:26:00,
2013-01-09 08:31:00,29.7,23.6,30.12,WSW,248,3.1,3.1,78,0.00,,---,0.00,VWS V14.01,2013-01-09 14:31:00,
2013-01-09 08:36:00,30.2,24.2,30.12,SW,225,2.7,2.9,78,0.00,,---,0.00,VWS V14.01,2013-01-09 14:36:00,
2013-01-09 08:41:00,30.9,24.6,30.12,WSW,248,5.4,5.4,77,0.00,,---,0.00,VWS V14.01,2013-01-09 14:41:00,
2013-01-09 08:46:00,32.2,25.8,30.18,West,270,5.4,5.4,77,0.00,,---,0.00,VWS V14.01,2013-01-09 14:46:00,
2013-01-09 08:51:00,32.7,26.3,30.18,South,180,3.6,3.6,77,0.00,,---,0.00,VWS V14.01,2013-01-09 14:51:00,
2013-01-09 08:56:00,33.6,26.9,30.18,WSW,248,4.0,4.0,76,0.00,,---,0.00,VWS V14.01,2013-01-09 14:56:00,
2013-01-09 09:01:00,34.5,27.4,30.18,SSW,202,2.0,2.7,75,0.00,,---,0.00,VWS V14.01,2013-01-09 15:01:00,
2013-01-09 09:06:00,35.2,27.8,30.15,WSW,248,3.6,3.6,74,0.00,,---,0.00,VWS V14.01,2013-01-09 15:06:00,
2013-01-09 09:11:00,36.1,28.3,30.15,WSW,248,1.6,1.6,73,0.00,,---,0.00,VWS V14.01,2013-01-09 15:11:00,
2013-01-09 09:16:00,36.3,28.5,30.15,SW,225,3.1,3.1,73,0.00,,---,0.00,VWS V14.01,2013-01-09 15:16:00,
2013-01-09 09:21:00,36.3,28.5,30.18,WSW,248,3.1,3.1,73,0.00,,---,0.00,VWS V14.01,2013-01-09 15:21:00,
2013-01-09 09:26:00,36.3,28.5,30.18,WSW,248,2.7,2.7,73,0.00,,---,0.00,VWS V14.01,2013-01-09 15:26:00,
2013-01-09 09:31:00,36.3,28.5,30.18,WSW,248,2.7,2.7,73,0.00,,---,0.00,VWS V14.01,2013-01-09 15:31:00,
2013-01-09 09:36:00,36.3,28.5,30.18,WSW,248,2.7,2.7,73,0.00,,---,0.00,VWS V14.01,2013-01-09 15:36:00,
2013-01-09 09:41:00,36.3,28.5,30.18,West,270,3.8,3.8,73,0.00,,---,0.00,VWS V14.01,2013-01-09 15:41:00,
2013-01-09 09:46:00,36.3,28.5,30.18,WNW,292,4.3,4.3,73,0.00,,---,0.00,VWS V14.01,2013-01-09 15:46:00,
2013-01-09 09:51:00,36.3,28.5,30.18,WSW,248,2.9,2.9,73,0.00,,---,0.00,VWS V14.01,2013-01-09 15:51:00,
2013-01-09 09:56:00,36.3,28.5,30.18,WSW,248,2.0,3.1,73,0.00,,---,0.00,VWS V14.01,2013-01-09 15:56:00,
2013-01-09 10:01:00,36.3,28.5,30.18,SSW,202,1.6,1.6,73,0.00,,---,0.00,VWS V14.01,2013-01-09 16:01:00,
2013-01-09 10:06:00,36.3,28.5,30.18,WSW,248,1.3,1.3,73,0.00,,---,0.00,VWS V14.01,2013-01-09 16:06:00,
2013-01-09 10:11:00,36.3,28.5,30.18,WSW,248,3.8,3.8,73,0.00,,---,0.00,VWS V14.01,2013-01-09 16:11:00,
2013-01-09 10:16:00,36.3,28.5,30.18,SSW,202,3.6,3.6,73,0.00,,---,0.00,VWS V14.01,2013-01-09 16:16:00,
2013-01-09 10:21:00,36.3,28.5,30.18,WSW,248,4.3,4.3,73,0.00,,---,0.00,VWS V14.01,2013-01-09 16:21:00,
2013-01-09 10:26:00,36.3,28.5,30.18,WSW,248,3.8,3.8,73,0.00,,---,0.00,VWS V14.01,2013-01-09 16:26:00,
2013-01-09 10:31:00,36.3,28.5,30.18,WSW,248,3.4,3.4,73,0.00,,---,0.00,VWS V14.01,2013-01-09 16:31:00,
2013-01-09 10:36:00,36.3,28.5,30.18,WSW,248,2.0,2.0,73,0.00,,---,0.00,VWS V14.01,2013-01-09 16:36:00,
2013-01-09 10:41:00,36.3,28.5,30.18,WNW,292,1.6,1.6,73,0.00,,---,0.00,VWS V14.01,2013-01-09 16:41:00,
2013-01-09 10:46:00,36.3,28.5,30.18,WNW,292,2.2,2.2,73,0.00,,---,0.00,VWS V14.01,2013-01-09 16:46:00,
2013-01-09 10:51:00,36.3,28.5,30.18,WSW,248,2.7,2.7,73,0.00,,---,0.00,VWS V14.01,2013-01-09 16:51:00,
2013-01-09 10:56:00,36.3,28.5,30.18,West,270,2.9,2.9,73,0.00,,---,0.00,VWS V14.01,2013-01-09 16:56:00,
2013-01-09 11:01:00,36.3,28.5,30.18,WSW,248,2.0,2.5,73,0.00,,---,0.00,VWS V14.01,2013-01-09 17:01:00,
2013-01-09 11:06:00,36.3,28.5,30.18,SSW,202,2.0,2.0,73,0.00,,---,0.00,VWS V14.01,2013-01-09 17:06:00,
2013-01-09 11:11:00,36.3,28.5,30.18,WSW,248,1.1,3.6,73,0.00,,---,0.00,VWS V14.01,2013-01-09 17:11:00,
2013-01-09 11:16:00,36.3,28.5,30.18,SSW,202,3.4,3.4,73,0.00,,---,0.00,VWS V14.01,2013-01-09 17:16:00,
2013-01-09 11:21:00,36.3,28.5,30.18,WNW,292,4.9,4.9,73,0.00,,---,0.00,VWS V14.01,2013-01-09 17:21:00,
2013-01-09 11:26:00,36.3,28.5,30.18,South,180,1.3,2.5,73,0.00,,---,0.00,VWS V14.01,2013-01-09 17:26:00,
2013-01-09 11:31:00,36.3,28.5,30.18,SW,225,1.1,2.5,73,0.00,,---,0.00,VWS V14.01,2013-01-09 17:31:00,
2013-01-09 11:37:00,36.3,28.5,30.18,WNW,292,2.2,2.2,73,0.00,,---,0.00,VWS V14.01,2013-01-09 17:37:00,
2013-01-09 11:42:00,36.3,28.5,30.18,WSW,248,2.7,2.7,73,0.00,,---,0.00,VWS V14.01,2013-01-09 17:42:00,
2013-01-09 11:47:00,46.6,32.6,30.15,West,270,1.6,1.6,58,0.00,,---,0.00,VWS V14.01,2013-01-09 17:47:00,
2013-01-09 11:52:00,47.1,33.1,30.15,SSW,202,3.4,3.4,58,0.00,,---,0.00,VWS V14.01,2013-01-09 17:52:00,
2013-01-09 11:57:00,47.5,32.6,30.15,SSW,202,0.9,0.9,56,0.00,,---,0.00,VWS V14.01,2013-01-09 17:57:00,
2013-01-09 12:02:00,47.5,33.0,30.18,SW,225,3.1,3.1,57,0.00,,---,0.00,VWS V14.01,2013-01-09 18:02:00,
2013-01-09 12:07:00,48.2,32.8,30.18,SSW,202,3.8,3.8,55,0.00,,---,0.00,VWS V14.01,2013-01-09 18:07:00,
2013-01-09 12:12:00,48.4,33.4,30.18,WSW,248,2.5,4.3,56,0.00,,---,0.00,VWS V14.01,2013-01-09 18:12:00,
2013-01-09 12:17:00,47.7,32.8,30.15,SSW,202,2.9,4.3,56,0.00,,---,0.00,VWS V14.01,2013-01-09 18:17:00,
2013-01-09 12:22:00,48.6,32.7,30.15,South,180,1.1,3.4,54,0.00,,---,0.00,VWS V14.01,2013-01-09 18:22:00,
2013-01-09 12:27:00,49.3,33.4,30.15,West,270,2.9,2.9,54,0.00,,---,0.00,VWS V14.01,2013-01-09 18:27:00,
2013-01-09 12:32:00,49.3,33.4,30.15,SW,225,1.6,3.1,54,0.00,,---,0.00,VWS V14.01,2013-01-09 18:32:00,
2013-01-09 12:37:00,48.7,32.8,30.15,WSW,248,2.5,2.5,54,0.00,,---,0.00,VWS V14.01,2013-01-09 18:37:00,
2013-01-09 12:41:00,49.1,32.7,30.15,SW,225,1.1,1.1,53,0.00,,---,0.00,VWS V14.01,2013-01-09 18:41:00,
2013-01-09 12:44:00,49.1,32.7,30.15,South,180,2.5,2.5,53,0.00,,---,0.00,VWS V14.01,2013-01-09 18:44:00,
2013-01-09 12:45:00,49.1,32.7,30.15,South,180,2.5,2.5,53,0.00,,---,0.00,VWS V14.01,2013-01-09 18:45:00,
2013-01-09 12:48:00,49.1,32.7,30.15,SW,225,2.0,2.0,53,0.00,,---,0.00,VWS V14.01,2013-01-09 18:48:00,
2013-01-09 12:49:00,49.1,32.7,30.15,SSW,202,0.9,2.0,53,0.00,,---,0.00,VWS V14.01,2013-01-09 18:49:00,
2013-01-09 12:54:00,49.3,32.9,30.15,SSE,158,2.7,2.7,53,0.00,,---,0.00,VWS V14.01,2013-01-09 18:54:00,
2013-01-09 12:59:00,49.3,32.9,30.15,WSW,248,2.7,2.7,53,0.00,,---,0.00,VWS V14.01,2013-01-09 18:59:00,
2013-01-09 13:04:00,49.3,32.9,30.12,SW,225,1.3,2.0,53,0.00,,---,0.00,VWS V14.01,2013-01-09 19:04:00,
2013-01-09 13:09:00,48.7,31.9,30.12,SSE,158,0.0,0.0,52,0.00,,---,0.00,VWS V14.01,2013-01-09 19:09:00,
2013-01-09 13:14:00,48.2,31.4,30.12,South,180,2.5,2.5,52,0.00,,---,0.00,VWS V14.01,2013-01-09 19:14:00,
2013-01-09 13:19:00,47.8,31.1,30.12,SSW,202,1.3,1.3,52,0.00,,---,0.00,VWS V14.01,2013-01-09 19:19:00,
2013-01-09 13:24:00,48.2,31.4,30.12,SSW,202,1.3,1.3,52,0.00,,---,0.00,VWS V14.01,2013-01-09 19:24:00,
2013-01-09 13:29:00,48.4,31.1,30.12,East,90,0.0,0.0,51,0.00,,---,0.00,VWS V14.01,2013-01-09 19:29:00,
2013-01-09 13:34:00,48.6,31.8,30.12,SE,135,0.0,0.0,52,0.00,,---,0.00,VWS V14.01,2013-01-09 19:34:00,
2013-01-09 13:39:00,48.0,31.2,30.12,SE,135,2.5,2.5,52,0.00,,---,0.00,VWS V14.01,2013-01-09 19:39:00,
2013-01-09 13:44:00,48.0,31.2,30.12,South,180,2.0,2.7,52,0.00,,---,0.00,VWS V14.01,2013-01-09 19:44:00,
2013-01-09 13:49:00,48.7,31.9,30.12,SE,135,2.5,2.5,52,0.00,,---,0.00,VWS V14.01,2013-01-09 19:49:00,
2013-01-09 13:54:00,48.7,31.9,30.12,SE,135,3.4,3.4,52,0.00,,---,0.00,VWS V14.01,2013-01-09 19:54:00,
2013-01-09 13:59:00,48.9,32.1,30.12,ESE,112,1.3,1.3,52,0.00,,---,0.00,VWS V14.01,2013-01-09 19:59:00,
2013-01-09 14:04:00,49.6,32.8,30.09,ESE,112,2.5,2.5,52,0.00,,---,0.00,VWS V14.01,2013-01-09 20:04:00,
2013-01-09 14:09:00,50.7,33.3,30.09,SE,135,1.6,2.7,51,0.00,,---,0.00,VWS V14.01,2013-01-09 20:09:00,
2013-01-09 14:14:00,50.7,33.3,30.09,SE,135,2.2,2.7,51,0.00,,---,0.00,VWS V14.01,2013-01-09 20:14:00,
2013-01-09 14:19:00,51.1,33.6,30.09,SE,135,2.9,2.9,51,0.00,,---,0.00,VWS V14.01,2013-01-09 20:19:00,
2013-01-09 14:24:00,51.6,33.6,30.09,SSE,158,1.3,1.3,50,0.00,,---,0.00,VWS V14.01,2013-01-09 20:24:00,
2013-01-09 14:29:00,51.6,33.6,30.09,South,180,2.0,2.0,50,0.00,,---,0.00,VWS V14.01,2013-01-09 20:29:00,
2013-01-09 14:34:00,51.4,33.4,30.09,SSE,158,2.5,3.1,50,0.00,,---,0.00,VWS V14.01,2013-01-09 20:34:00,
2013-01-09 14:39:00,51.4,33.4,30.09,SSW,202,3.1,3.1,50,0.00,,---,0.00,VWS V14.01,2013-01-09 20:39:00,
2013-01-09 14:44:00,51.4,33.4,30.09,SE,135,1.1,1.1,50,0.00,,---,0.00,VWS V14.01,2013-01-09 20:44:00,
2013-01-09 14:49:00,51.4,33.4,30.12,SE,135,2.5,2.5,50,0.00,,---,0.00,VWS V14.01,2013-01-09 20:49:00,
2013-01-09 14:54:00,51.4,33.4,30.12,SE,135,2.9,2.9,50,0.00,,---,0.00,VWS V14.01,2013-01-09 20:54:00,
2013-01-09 14:59:00,51.4,33.4,30.12,SW,225,2.7,2.7,50,0.00,,---,0.00,VWS V14.01,2013-01-09 20:59:00,
2013-01-09 15:04:00,51.4,33.4,30.09,South,180,2.0,2.0,50,0.00,,---,0.00,VWS V14.01,2013-01-09 21:04:00,
2013-01-09 15:09:00,51.4,33.4,30.09,South,180,1.6,2.5,50,0.00,,---,0.00,VWS V14.01,2013-01-09 21:09:00,
2013-01-09 15:14:00,51.4,33.4,30.09,South,180,4.0,4.0,50,0.00,,---,0.00,VWS V14.01,2013-01-09 21:14:00,
2013-01-09 15:20:00,51.4,33.4,30.09,ESE,112,2.0,2.9,50,0.00,,---,0.00,VWS V14.01,2013-01-09 21:20:00,
2013-01-09 15:25:00,46.2,30.0,30.09,SSE,158,0.9,0.9,53,0.00,,---,0.00,VWS V14.01,2013-01-09 21:25:00,
2013-01-09 15:30:00,46.2,30.5,30.09,SSE,158,2.5,2.5,54,0.00,,---,0.00,VWS V14.01,2013-01-09 21:30:00,
2013-01-09 15:35:00,46.0,30.3,30.12,South,180,1.3,1.6,54,0.00,,---,0.00,VWS V14.01,2013-01-09 21:35:00,
2013-01-09 15:40:00,45.7,30.0,30.12,SSE,158,0.9,2.9,54,0.00,,---,0.00,VWS V14.01,2013-01-09 21:40:00,
2013-01-09 15:45:00,45.7,30.5,30.12,South,180,1.6,1.6,55,0.00,,---,0.00,VWS V14.01,2013-01-09 21:45:00,
2013-01-09 15:50:00,45.9,30.6,30.12,South,180,0.0,0.0,55,0.00,,---,0.00,VWS V14.01,2013-01-09 21:50:00,
2013-01-09 15:55:00,45.9,30.6,30.12,SSE,158,0.0,2.0,55,0.00,,---,0.00,VWS V14.01,2013-01-09 21:55:00,
2013-01-09 16:00:00,45.9,30.6,30.12,SSE,158,0.0,0.0,55,0.00,,---,0.00,VWS V14.01,2013-01-09 22:00:00,
2013-01-09 16:05:00,45.9,30.6,30.09,South,180,0.0,0.0,55,0.00,,---,0.00,VWS V14.01,2013-01-09 22:05:00,
2013-01-09 16:10:00,45.5,30.3,30.09,SSE,158,2.0,2.0,55,0.00,,---,0.00,VWS V14.01,2013-01-09 22:10:00,
2013-01-09 16:15:00,45.5,30.7,30.09,SSE,158,1.6,1.6,56,0.00,,---,0.00,VWS V14.01,2013-01-09 22:15:00,
2013-01-09 16:20:00,45.3,30.6,30.09,SSE,158,0.0,0.0,56,0.00,,---,0.00,VWS V14.01,2013-01-09 22:20:00,
2013-01-09 16:25:00,45.1,30.4,30.09,NE,45,2.0,2.0,56,0.00,,---,0.00,VWS V14.01,2013-01-09 22:25:00,
2013-01-09 16:30:00,45.0,30.7,30.09,SE,135,1.3,1.3,57,0.00,,---,0.00,VWS V14.01,2013-01-09 22:30:00,
2013-01-09 16:35:00,44.6,30.3,30.12,SE,135,1.3,2.2,57,0.00,,---,0.00,VWS V14.01,2013-01-09 22:35:00,
2013-01-09 16:40:00,44.2,30.0,30.12,ESE,112,1.1,1.1,57,0.00,,---,0.00,VWS V14.01,2013-01-09 22:40:00,
2013-01-09 16:45:00,44.2,30.4,30.12,SE,135,0.0,0.0,58,0.00,,---,0.00,VWS V14.01,2013-01-09 22:45:00,
2013-01-09 16:50:00,44.1,30.2,30.09,ESE,112,0.0,0.0,58,0.00,,---,0.00,VWS V14.01,2013-01-09 22:50:00,
2013-01-09 16:55:00,43.5,29.7,30.09,SE,135,0.0,0.0,58,0.00,,---,0.00,VWS V14.01,2013-01-09 22:55:00,
2013-01-09 17:00:00,43.3,30.0,30.09,ESE,112,0.0,0.0,59,0.00,,---,0.00,VWS V14.01,2013-01-09 23:00:00,
2013-01-09 17:05:00,43.0,29.6,30.09,SSE,158,1.1,1.1,59,0.00,,---,0.00,VWS V14.01,2013-01-09 23:05:00,
2013-01-09 17:10:00,42.8,29.9,30.09,ESE,112,1.6,1.6,60,0.00,,---,0.00,VWS V14.01,2013-01-09 23:10:00,
2013-01-09 17:15:00,42.4,29.5,30.09,ESE,112,2.5,2.7,60,0.00,,---,0.00,VWS V14.01,2013-01-09 23:15:00,
2013-01-09 17:20:00,42.3,29.8,30.09,ENE,68,1.3,1.3,61,0.00,,---,0.00,VWS V14.01,2013-01-09 23:20:00,
2013-01-09 17:25:00,42.1,29.6,30.09,ESE,112,2.7,2.9,61,0.00,,---,0.00,VWS V14.01,2013-01-09 23:25:00,
2013-01-09 17:30:00,41.9,29.9,30.09,ESE,112,2.7,2.9,62,0.00,,---,0.00,VWS V14.01,2013-01-09 23:30:00,
2013-01-09 17:35:00,41.9,29.9,30.09,ESE,112,2.5,2.5,62,0.00,,---,0.00,VWS V14.01,2013-01-09 23:35:00,
2013-01-09 17:40:00,41.7,29.7,30.09,SE,135,1.6,2.7,62,0.00,,---,0.00,VWS V14.01,2013-01-09 23:40:00,
2013-01-09 17:45:00,41.5,29.9,30.09,SE,135,2.2,2.2,63,0.00,,---,0.00,VWS V14.01,2013-01-09 23:45:00,
2013-01-09 17:50:00,41.5,29.9,30.12,SE,135,2.7,3.4,63,0.00,,---,0.00,VWS V14.01,2013-01-09 23:50:00,
2013-01-09 17:55:00,41.4,30.1,30.12,ESE,112,2.5,2.5,64,0.00,,---,0.00,VWS V14.01,2013-01-09 23:55:00,
2013-01-09 18:00:00,41.4,30.1,30.12,ESE,112,2.7,2.7,64,0.00,,---,0.00,VWS V14.01,2013-01-10 00:00:00,
2013-01-09 18:05:00,41.2,29.9,30.09,ESE,112,2.2,2.2,64,0.00,,---,0.00,VWS V14.01,2013-01-10 00:05:00,
2013-01-09 18:10:00,41.2,30.3,30.09,SSE,158,2.7,2.9,65,0.00,,---,0.00,VWS V14.01,2013-01-10 00:10:00,
2013-01-09 18:15:00,41.0,30.1,30.09,SE,135,3.1,3.1,65,0.00,,---,0.00,VWS V14.01,2013-01-10 00:15:00,
2013-01-09 18:20:00,41.0,30.5,30.09,SE,135,2.7,2.7,66,0.00,,---,0.00,VWS V14.01,2013-01-10 00:20:00,
2013-01-09 18:25:00,41.0,30.5,30.09,SE,135,2.7,2.7,66,0.00,,---,0.00,VWS V14.01,2013-01-10 00:25:00,
2013-01-09 18:30:00,41.2,30.7,30.09,ESE,112,2.0,2.0,66,0.00,,---,0.00,VWS V14.01,2013-01-10 00:30:00,
2013-01-09 18:35:00,41.2,30.7,30.09,ESE,112,2.5,2.5,66,0.00,,---,0.00,VWS V14.01,2013-01-10 00:35:00,
2013-01-09 18:40:00,41.2,30.7,30.09,SSE,158,2.0,2.0,66,0.00,,---,0.00,VWS V14.01,2013-01-10 00:40:00,
2013-01-09 18:45:00,41.2,30.7,30.09,SE,135,2.5,2.5,66,0.00,,---,0.00,VWS V14.01,2013-01-10 00:45:00,
2013-01-09 18:50:00,41.0,30.5,30.09,ESE,112,1.6,1.6,66,0.00,,---,0.00,VWS V14.01,2013-01-10 00:50:00,
2013-01-09 18:55:00,40.8,30.7,30.09,ESE,112,1.6,1.6,67,0.00,,---,0.00,VWS V14.01,2013-01-10 00:55:00,
2013-01-09 19:00:00,40.6,30.5,30.09,ESE,112,3.1,3.6,67,0.00,,---,0.00,VWS V14.01,2013-01-10 01:00:00,
2013-01-09 19:05:00,40.6,30.9,30.12,SE,135,1.6,2.0,68,0.00,,---,0.00,VWS V14.01,2013-01-10 01:05:00,
2013-01-09 19:10:00,40.6,30.9,30.12,SSE,158,1.3,2.5,68,0.00,,---,0.00,VWS V14.01,2013-01-10 01:10:00,
2013-01-09 19:15:00,40.5,30.8,30.12,SE,135,1.6,1.6,68,0.00,,---,0.00,VWS V14.01,2013-01-10 01:15:00,
2013-01-09 19:20:00,40.5,30.8,30.12,SE,135,1.6,1.6,68,0.00,,---,0.00,VWS V14.01,2013-01-10 01:20:00,
2013-01-09 19:25:00,40.3,30.6,30.12,SSE,158,3.4,3.4,68,0.00,,---,0.00,VWS V14.01,2013-01-10 01:25:00,
2013-01-09 19:30:00,40.3,30.6,30.12,South,180,2.0,2.0,68,0.00,,---,0.00,VWS V14.01,2013-01-10 01:30:00,
2013-01-09 19:35:00,40.1,30.4,30.12,SSE,158,1.1,1.1,68,0.00,,---,0.00,VWS V14.01,2013-01-10 01:35:00,
2013-01-09 19:40:00,40.1,30.4,30.12,ESE,112,2.0,3.6,68,0.00,,---,0.00,VWS V14.01,2013-01-10 01:40:00,
2013-01-09 19:46:00,40.3,30.2,30.12,SSE,158,3.1,3.1,67,0.00,,---,0.00,VWS V14.01,2013-01-10 01:46:00,
2013-01-09 19:51:00,40.5,30.4,30.12,SSE,158,4.0,4.0,67,0.00,,---,0.00,VWS V14.01,2013-01-10 01:51:00,
2013-01-09 19:56:00,40.5,30.4,30.12,SE,135,2.0,2.9,67,0.00,,---,0.00,VWS V14.01,2013-01-10 01:56:00,
2013-01-09 20:01:00,40.5,30.4,30.12,SSE,158,1.6,2.0,67,0.00,,---,0.00,VWS V14.01,2013-01-10 02:01:00,
2013-01-09 20:06:00,40.5,30.4,30.09,SSE,158,3.1,3.1,67,0.00,,---,0.00,VWS V14.01,2013-01-10 02:06:00,
2013-01-09 20:11:00,40.3,30.2,30.09,SE,135,1.6,2.0,67,0.00,,---,0.00,VWS V14.01,2013-01-10 02:11:00,
2013-01-09 20:16:00,40.3,30.2,30.09,ESE,112,3.1,3.1,67,0.00,,---,0.00,VWS V14.01,2013-01-10 02:16:00,
2013-01-09 20:21:00,40.1,30.0,30.09,SE,135,2.9,2.9,67,0.00,,---,0.00,VWS V14.01,2013-01-10 02:21:00,
2013-01-09 20:26:00,39.7,29.7,30.09,SSE,158,2.5,2.5,67,0.00,,---,0.00,VWS V14.01,2013-01-10 02:26:00,
2013-01-09 20:31:00,39.7,29.7,30.09,ESE,112,2.7,2.7,67,0.00,,---,0.00,VWS V14.01,2013-01-10 02:31:00,
2013-01-09 20:36:00,39.6,29.5,30.09,SSE,158,2.9,2.9,67,0.00,,---,0.00,VWS V14.01,2013-01-10 02:36:00,
2013-01-09 20:41:00,39.6,29.5,30.09,SSE,158,2.0,2.2,67,0.00,,---,0.00,VWS V14.01,2013-01-10 02:41:00,
2013-01-09 20:46:00,39.4,29.4,30.09,SE,135,2.2,2.2,67,0.00,,---,0.00,VWS V14.01,2013-01-10 02:46:00,
2013-01-09 20:51:00,39.6,29.5,30.09,ENE,68,2.9,2.9,67,0.00,,---,0.00,VWS V14.01,2013-01-10 02:51:00,
2013-01-09 20:56:00,39.6,29.5,30.09,SSE,158,2.0,2.0,67,0.00,,---,0.00,VWS V14.01,2013-01-10 02:56:00,
2013-01-09 21:01:00,39.6,29.5,30.09,SE,135,2.2,2.7,67,0.00,,---,0.00,VWS V14.01,2013-01-10 03:01:00,
2013-01-09 21:06:00,39.6,29.5,30.09,SSE,158,2.2,2.2,67,0.00,,---,0.00,VWS V14.01,2013-01-10 03:06:00,
2013-01-09 21:11:00,39.6,29.5,30.09,SSE,158,2.9,2.9,67,0.00,,---,0.00,VWS V14.01,2013-01-10 03:11:00,
2013-01-09 21:16:00,39.6,29.5,30.09,ESE,112,3.1,3.1,67,0.00,,---,0.00,VWS V14.01,2013-01-10 03:16:00,
2013-01-09 21:21:00,39.4,29.4,30.09,SE,135,2.2,2.9,67,0.00,,---,0.00,VWS V14.01,2013-01-10 03:21:00,
2013-01-09 21:26:00,39.4,29.4,30.09,ESE,112,2.5,2.5,67,0.00,,---,0.00,VWS V14.01,2013-01-10 03:26:00,
2013-01-09 21:31:00,39.2,29.2,30.09,SSE,158,2.7,2.7,67,0.00,,---,0.00,VWS V14.01,2013-01-10 03:31:00,
2013-01-09 21:36:00,39.2,29.2,30.09,ESE,112,2.9,2.9,67,0.00,,---,0.00,VWS V14.01,2013-01-10 03:36:00,
2013-01-09 21:41:00,39.2,29.2,30.09,ESE,112,1.6,2.7,67,0.00,,---,0.00,VWS V14.01,2013-01-10 03:41:00,
2013-01-09 21:46:00,39.2,29.2,30.09,SSE,158,1.6,1.6,67,0.00,,---,0.00,VWS V14.01,2013-01-10 03:46:00,
2013-01-09 21:51:00,39.2,29.2,30.09,SSE,158,2.5,3.8,67,0.00,,---,0.00,VWS V14.01,2013-01-10 03:51:00,
2013-01-09 21:56:00,39.2,29.2,30.09,South,180,1.1,2.0,67,0.00,,---,0.00,VWS V14.01,2013-01-10 03:56:00,
2013-01-09 22:01:00,39.4,29.4,30.09,SSE,158,2.0,2.7,67,0.00,,---,0.00,VWS V14.01,2013-01-10 04:01:00,
2013-01-09 22:06:00,39.6,29.1,30.09,SSE,158,2.5,3.1,66,0.00,,---,0.00,VWS V14.01,2013-01-10 04:06:00,
2013-01-09 22:11:00,39.4,29.0,30.09,SSE,158,1.6,2.2,66,0.00,,---,0.00,VWS V14.01,2013-01-10 04:11:00,
2013-01-09 22:16:00,39.4,29.0,30.09,ESE,112,1.6,1.6,66,0.00,,---,0.00,VWS V14.01,2013-01-10 04:16:00,
2013-01-09 22:21:00,39.4,29.0,30.09,SSE,158,2.7,2.7,66,0.00,,---,0.00,VWS V14.01,2013-01-10 04:21:00,
2013-01-09 22:26:00,39.7,29.3,30.09,SE,135,2.7,3.6,66,0.00,,---,0.00,VWS V14.01,2013-01-10 04:26:00,
2013-01-09 22:31:00,39.7,29.0,30.09,SSE,158,2.0,2.0,65,0.00,,---,0.00,VWS V14.01,2013-01-10 04:31:00,
2013-01-09 22:36:00,39.7,29.0,30.09,South,180,2.0,2.2,65,0.00,,---,0.00,VWS V14.01,2013-01-10 04:36:00,
2013-01-09 22:41:00,39.6,28.8,30.09,SSE,158,2.5,2.5,65,0.00,,---,0.00,VWS V14.01,2013-01-10 04:41:00,
2013-01-09 22:46:00,39.4,28.6,30.09,SE,135,3.4,3.4,65,0.00,,---,0.00,VWS V14.01,2013-01-10 04:46:00,
2013-01-09 22:51:00,39.4,28.6,30.09,SSE,158,4.0,4.0,65,0.00,,---,0.00,VWS V14.01,2013-01-10 04:51:00,
2013-01-09 22:56:00,39.4,28.6,30.09,SSE,158,2.7,2.7,65,0.00,,---,0.00,VWS V14.01,2013-01-10 04:56:00,
2013-01-09 23:00:00,39.4,28.6,30.09,SSE,158,2.9,2.9,65,0.00,,---,0.00,VWS V14.01,2013-01-10 05:00:00,
2013-01-09 23:03:00,39.4,28.6,30.09,SE,135,3.6,3.6,65,0.00,,---,0.00,VWS V14.01,2013-01-10 05:03:00,
2013-01-09 23:08:00,39.4,28.6,30.09,South,180,1.6,2.5,65,0.00,,---,0.00,VWS V14.01,2013-01-10 05:08:00,
2013-01-09 23:13:00,39.2,28.1,30.09,SSE,158,2.5,2.5,64,0.00,,---,0.00,VWS V14.01,2013-01-10 05:13:00,
2013-01-09 23:18:00,39.2,28.1,30.09,SSE,158,2.5,3.1,64,0.00,,---,0.00,VWS V14.01,2013-01-10 05:18:00,
2013-01-09 23:23:00,39.2,28.1,30.09,SSW,202,3.6,3.6,64,0.00,,---,0.00,VWS V14.01,2013-01-10 05:23:00,
2013-01-09 23:28:00,39.0,28.3,30.09,SSE,158,3.1,4.0,65,0.00,,---,0.00,VWS V14.01,2013-01-10 05:28:00,
2013-01-09 23:33:00,39.0,28.3,30.09,SSE,158,2.7,2.7,65,0.00,,---,0.00,VWS V14.01,2013-01-10 05:33:00,
2013-01-09 23:38:00,39.0,28.3,30.09,SSW,202,2.9,3.1,65,0.00,,---,0.00,VWS V14.01,2013-01-10 05:38:00,
2013-01-09 23:43:00,38.8,28.1,30.09,SSE,158,2.7,2.7,65,0.00,,---,0.00,VWS V14.01,2013-01-10 05:43:00,
2013-01-09 23:48:00,38.8,28.1,30.09,SSE,158,2.2,2.2,65,0.00,,---,0.00,VWS V14.01,2013-01-10 05:48:00,
2013-01-09 23:53:00,38.8,28.1,30.09,South,180,0.9,1.6,65,0.00,,---,0.00,VWS V14.01,2013-01-10 05:53:00,
2013-01-09 23:58:00,38.8,28.1,30.09,SSW,202,2.5,2.9,65,0.00,,---,0.00,VWS V14.01,2013-01-10 05:58:00,